Time,TemperatureF,DewpointF,PressureIn,WindDirection,WindDirectionDegrees,WindSpeedMPH,WindSpeedGustMPH,Humidity,HourlyPrecipIn,Conditions,Clouds,dailyrainin,SoftwareType,DateUTC
2016-07-28 00:03:00,80.0,66.0,-100.00,ESE,115,7.0,-999.0,63,-99.99,,,-99.99,,2016-07-28 04:03:00,
2016-07-28 00:11:00,80.0,67.0,-100.00,ESE,115,-999.9,-999.0,63,-99.99,,,-99.99,,2016-07-28 04:11:00,
2016-07-28 00:21:00,80.0,67.0,-100.00,ESE,115,7.0,-999.0,64,-99.99,,,-99.99,,2016-07-28 04:21:00,
2016-07-28 00:43:00,79.0,67.0,-100.00,ESE,115,7.0,-999.0,66,-99.99,,,-99.99,,2016-07-28 04:43:00,
2016-07-28 00:52:00,79.0,67.0,-100.00,ESE,115,7.0,-999.0,67,-99.99,,,-99.99,,2016-07-28 04:52:00,
2016-07-28 01:22:00,78.0,68.0,-100.00,ESE,115,7.0,-999.0,70,-99.99,,,-99.99,,2016-07-28 05:22:00,
2016-07-28 02:12:00,78.0,67.0,-100.00,ESE,115,7.0,-999.0,70,-99.99,,,-99.99,,2016-07-28 06:12:00,
2016-07-28 02:23:00,78.0,67.0,-100.00,ESE,115,7.0,11.0,69,-99.99,,,-99.99,,2016-07-28 06:23:00,
2016-07-28 02:39:00,78.0,68.0,-100.00,ESE,115,7.0,11.0,72,-99.99,,,-99.99,,2016-07-28 06:39:00,
2016-07-28 02:45:00,78.0,68.0,-100.00,ESE,115,7.0,11.0,72,-99.99,,,-99.99,,2016-07-28 06:45:00,
2016-07-28 02:55:00,77.0,68.0,-100.00,ESE,115,7.0,11.0,75,-99.99,,,-99.99,,2016-07-28 06:55:00,
2016-07-28 03:10:00,77.0,69.0,-100.00,ESE,115,7.0,-999.0,76,-99.99,,,-99.99,,2016-07-28 07:10:00,
2016-07-28 03:17:00,77.0,69.0,-100.00,ESE,115,7.0,11.0,76,-99.99,,,-99.99,,2016-07-28 07:17:00,
2016-07-28 03:36:00,77.0,68.0,-100.00,ESE,115,7.0,11.0,73,-99.99,,,-99.99,,2016-07-28 07:36:00,
2016-07-28 03:48:00,76.0,70.0,-100.00,ESE,115,7.0,11.0,81,-99.99,,,-99.99,,2016-07-28 07:48:00,
2016-07-28 03:54:00,76.0,70.0,-100.00,ESE,115,7.0,11.0,80,-99.99,,,-99.99,,2016-07-28 07:54:00,
2016-07-28 04:04:00,76.0,70.0,-100.00,ESE,115,7.0,11.0,81,-99.99,,,-99.99,,2016-07-28 08:04:00,
2016-07-28 04:44:00,75.0,71.0,-100.00,ESE,115,7.0,11.0,88,-99.99,,,-99.99,,2016-07-28 08:44:00,
2016-07-28 04:54:00,76.0,70.0,-100.00,ESE,115,7.0,11.0,80,-99.99,,,-99.99,,2016-07-28 08:54:00,
2016-07-28 05:04:00,76.0,69.0,-100.00,ESE,115,7.0,11.0,79,-99.99,,,-99.99,,2016-07-28 09:04:00,
2016-07-28 05:13:00,77.0,68.0,-100.00,ESE,115,7.0,11.0,75,-99.99,,,-99.99,,2016-07-28 09:13:00,
2016-07-28 05:41:00,77.0,67.0,-100.00,ESE,115,7.0,-999.0,72,-99.99,,,-99.99,,2016-07-28 09:41:00,
2016-07-28 05:51:00,75.0,69.0,-100.00,ESE,115,7.0,-999.0,82,-99.99,,,-99.99,,2016-07-28 09:51:00,
2016-07-28 06:13:00,75.0,70.0,-100.00,ESE,115,7.0,-999.0,85,-99.99,,,-99.99,,2016-07-28 10:13:00,
2016-07-28 06:21:00,75.0,70.0,-100.00,ESE,115,-999.9,-999.0,86,-99.99,,,-99.99,,2016-07-28 10:21:00,
2016-07-28 06:32:00,74.0,70.0,-100.00,ESE,115,7.0,-999.0,86,-99.99,,,-99.99,,2016-07-28 10:32:00,
2016-07-28 06:41:00,75.0,70.0,-100.00,ESE,115,-999.9,-999.0,85,-99.99,,,-99.99,,2016-07-28 10:41:00,
2016-07-28 06:52:00,75.0,70.0,-100.00,ESE,115,-999.9,-999.0,84,-99.99,,,-99.99,,2016-07-28 10:52:00,
2016-07-28 07:12:00,75.0,71.0,-100.00,North,-9999,-999.9,-999.0,89,-99.99,,,-99.99,,2016-07-28 11:12:00,
2016-07-28 07:23:00,74.0,72.0,-100.00,ESE,115,7.0,-999.0,92,-99.99,,,-99.99,,2016-07-28 11:23:00,
2016-07-28 07:42:00,74.0,72.0,-100.00,ESE,115,7.0,-999.0,94,-99.99,,,-99.99,,2016-07-28 11:42:00,
2016-07-28 07:53:00,73.0,71.0,-100.00,ESE,115,7.0,-999.0,94,-99.99,,,-99.99,,2016-07-28 11:53:00,
2016-07-28 08:11:00,72.0,70.0,-100.00,ESE,115,7.0,-999.0,94,-99.99,,,-99.99,,2016-07-28 12:11:00,
2016-07-28 08:17:00,72.0,68.0,-100.00,ESE,115,7.0,11.0,87,-99.99,,,-99.99,,2016-07-28 12:17:00,
2016-07-28 08:35:00,72.0,68.0,-100.00,ESE,115,7.0,11.0,88,-99.99,,,-99.99,,2016-07-28 12:35:00,
2016-07-28 08:52:00,72.0,68.0,-100.00,ESE,115,7.0,11.0,88,-99.99,,,-99.99,,2016-07-28 12:52:00,
2016-07-28 09:07:00,71.0,68.0,-100.00,ESE,115,7.0,11.0,90,-99.99,,,-99.99,,2016-07-28 13:07:00,
2016-07-28 09:14:00,71.0,68.0,-100.00,ESE,115,7.0,11.0,90,-99.99,,,-99.99,,2016-07-28 13:14:00,
2016-07-28 09:42:00,72.0,68.0,-100.00,ESE,115,7.0,11.0,88,-99.99,,,-99.99,,2016-07-28 13:42:00,
2016-07-28 09:47:00,72.0,68.0,-100.00,ESE,115,7.0,11.0,87,-99.99,,,-99.99,,2016-07-28 13:47:00,
2016-07-28 09:54:00,72.0,68.0,-100.00,ESE,115,7.0,11.0,86,-99.99,,,-99.99,,2016-07-28 13:54:00,
2016-07-28 10:04:00,73.0,71.0,-100.00,ESE,115,7.0,11.0,94,-99.99,,,-99.99,,2016-07-28 14:04:00,
2016-07-28 10:13:00,73.0,69.0,-100.00,ESE,115,7.0,11.0,88,-99.99,,,-99.99,,2016-07-28 14:13:00,
2016-07-28 10:34:00,73.0,69.0,-100.00,ESE,115,7.0,11.0,87,-99.99,,,-99.99,,2016-07-28 14:34:00,
2016-07-28 10:54:00,73.0,69.0,-100.00,ESE,115,7.0,11.0,87,-99.99,,,-99.99,,2016-07-28 14:54:00,
2016-07-28 11:04:00,73.0,69.0,-100.00,ESE,115,7.0,11.0,88,-99.99,,,-99.99,,2016-07-28 15:04:00,
2016-07-28 11:13:00,73.0,69.0,-100.00,ESE,115,7.0,11.0,87,-99.99,,,-99.99,,2016-07-28 15:13:00,
2016-07-28 11:41:00,74.0,69.0,-100.00,ESE,115,-999.9,-999.0,86,-99.99,,,-99.99,,2016-07-28 15:41:00,
2016-07-28 11:51:00,74.0,70.0,-100.00,ESE,115,-999.9,-999.0,88,-99.99,,,-99.99,,2016-07-28 15:51:00,
2016-07-28 12:11:00,75.0,70.0,-100.00,ESE,115,-999.9,-999.0,85,-99.99,,,-99.99,,2016-07-28 16:11:00,
2016-07-28 13:12:00,76.0,75.0,-100.00,ESE,115,-999.9,-999.0,98,-99.99,,,-99.99,,2016-07-28 17:12:00,
2016-07-28 13:22:00,77.0,75.0,-100.00,ESE,115,-999.9,-999.0,94,-99.99,,,-99.99,,2016-07-28 17:22:00,
2016-07-28 14:02:00,78.0,76.0,-100.00,ESE,115,7.0,-999.0,94,-99.99,,,-99.99,,2016-07-28 18:02:00,
2016-07-28 14:13:00,78.0,75.0,-100.00,ESE,115,7.0,-999.0,92,-99.99,,,-99.99,,2016-07-28 18:13:00,
2016-07-28 14:22:00,79.0,74.0,-100.00,ESE,115,7.0,-999.0,84,-99.99,,,-99.99,,2016-07-28 18:22:00,
2016-07-28 14:29:00,80.0,73.0,-100.00,ESE,115,7.0,-999.0,80,-99.99,,,-99.99,,2016-07-28 18:29:00,
2016-07-28 14:42:00,80.0,73.0,-100.00,ESE,115,7.0,11.0,79,-99.99,,,-99.99,,2016-07-28 18:42:00,
2016-07-28 14:55:00,81.0,73.0,-100.00,ESE,115,7.0,11.0,77,-99.99,,,-99.99,,2016-07-28 18:55:00,
2016-07-28 15:07:00,81.0,73.0,-100.00,ESE,115,7.0,11.0,77,-99.99,,,-99.99,,2016-07-28 19:07:00,
2016-07-28 15:21:00,82.0,70.0,-100.00,ESE,115,7.0,11.0,68,-99.99,,,-99.99,,2016-07-28 19:21:00,
2016-07-28 15:26:00,82.0,70.0,-100.00,ESE,115,7.0,11.0,68,-99.99,,,-99.99,,2016-07-28 19:26:00,
2016-07-28 15:36:00,82.0,72.0,-100.00,ESE,115,7.0,11.0,71,-99.99,,,-99.99,,2016-07-28 19:36:00,
2016-07-28 15:46:00,81.0,71.0,-100.00,ESE,115,7.0,11.0,72,-99.99,,,-99.99,,2016-07-28 19:46:00,
2016-07-28 15:54:00,81.0,71.0,-100.00,ESE,115,7.0,11.0,72,-99.99,,,-99.99,,2016-07-28 19:54:00,
2016-07-28 16:04:00,82.0,71.0,-100.00,ESE,115,7.0,11.0,69,-99.99,,,-99.99,,2016-07-28 20:04:00,
2016-07-28 16:15:00,81.0,71.0,-100.00,ESE,115,7.0,11.0,71,-99.99,,,-99.99,,2016-07-28 20:15:00,
2016-07-28 16:34:00,82.0,71.0,-100.00,ESE,115,7.0,11.0,68,-99.99,,,-99.99,,2016-07-28 20:34:00,
2016-07-28 16:54:00,83.0,70.0,-100.00,ESE,115,7.0,11.0,66,-99.99,,,-99.99,,2016-07-28 20:54:00,
2016-07-28 17:04:00,82.0,70.0,-100.00,ESE,115,7.0,11.0,66,-99.99,,,-99.99,,2016-07-28 21:04:00,
2016-07-28 17:14:00,84.0,70.0,-100.00,ESE,115,7.0,11.0,62,-99.99,,,-99.99,,2016-07-28 21:14:00,
2016-07-28 17:41:00,83.0,70.0,-100.00,ESE,115,7.0,-999.0,66,-99.99,,,-99.99,,2016-07-28 21:41:00,
2016-07-28 17:51:00,82.0,70.0,-100.00,ESE,115,7.0,-999.0,67,-99.99,,,-99.99,,2016-07-28 21:51:00,
2016-07-28 18:21:00,84.0,71.0,-100.00,ESE,115,7.0,-999.0,64,-99.99,,,-99.99,,2016-07-28 22:21:00,
2016-07-28 18:43:00,83.0,71.0,-100.00,ESE,115,-999.9,-999.0,68,-99.99,,,-99.99,,2016-07-28 22:43:00,
2016-07-28 19:04:00,82.0,71.0,-100.00,ESE,115,7.0,-999.0,69,-99.99,,,-99.99,,2016-07-28 23:04:00,
2016-07-28 19:13:00,82.0,71.0,-100.00,ESE,115,7.0,-999.0,69,-99.99,,,-99.99,,2016-07-28 23:13:00,
2016-07-28 19:22:00,82.0,71.0,-100.00,ESE,115,7.0,-999.0,71,-99.99,,,-99.99,,2016-07-28 23:22:00,
2016-07-28 20:26:00,81.0,70.0,-100.00,ESE,115,7.0,11.0,71,-99.99,,,-99.99,,2016-07-29 00:26:00,
2016-07-28 20:40:00,81.0,71.0,-100.00,ESE,115,7.0,11.0,71,-99.99,,,-99.99,,2016-07-29 00:40:00,
2016-07-28 20:51:00,81.0,71.0,-100.00,ESE,115,7.0,11.0,73,-99.99,,,-99.99,,2016-07-29 00:51:00,
2016-07-28 21:06:00,80.0,71.0,-100.00,ESE,115,7.0,11.0,74,-99.99,,,-99.99,,2016-07-29 01:06:00,